Flag for India Weather past 2 weeks in Pudukkottai, Tamil Nadu, India

Now
95 °F

Passing clouds.


Feels Like: 98 °F
Forecast: 73 / 97 °F
Wind: 12 mph from East

Location: Tiruchchirapalli

Current Time: Mar 27, 2015 at 6:23:54 PM

Latest Report: Mar 27, 2015 at 5:40 PM


Visibility: 4 mi

Pressure: 29.83 "Hg

Humidity: 39%

Dew point: 66 °F

Location of PudukkottaiLocation

Historic Weather in Pudukkottai — Graph

°F

Pudukkottai temperature yesterday

Maximum temperature yesterday: 97 °F (at 2:40 PM)
Minimum temperature yesterday: 75 °F (at 5:40 AM)
Average temperature yesterday: 86 °F

Past Weeks' High & Low Weather Summary

 TemperatureHumidityPressure
High100 °F (Mar 22, 3:40 PM)94% (Mar 15, 3:40 AM)30.01 "Hg (Mar 15, 3:40 AM)
Low72 °F (Mar 18, 5:40 AM)24% (Mar 19, 1:40 PM)29.74 "Hg (Mar 23, 4:40 PM)
Average85 °F61%29.90 "Hg
* Reported Mar 12 4:40 PM — Mar 27 4:40 PM, Pudukkottai, Weather by CustomWeather, © 2015

Note: Actual official high and low records may vary slightly from our data, if they occured in-between our weather recording intervals... More about our weather records

Advertising

Pudukkottai weather history for previous 24 hours

 ConditionsComfort  
Time TempWeatherWind HumidityBarometerVisibility
4:40 PM
Fri, Mar 27
97 °FScattered clouds.10 mph37%29.80 "Hg5 mi
3:40 PM97 °FScattered clouds.10 mph34%29.83 "Hg5 mi
2:40 PM97 °FScattered clouds.8 mph34%29.86 "Hg4 mi
12:40 PM95 °FScattered clouds.7 mph41%29.92 "Hg4 mi
11:40 AM91 °FScattered clouds.8 mph49%29.95 "Hg3 mi
10:40 AM90 °FScattered clouds.5 mph59%29.98 "Hg3 mi
9:40 AM86 °FScattered clouds.6 mph66%29.98 "Hg2 mi
7:40 AM79 °FFog.7 mph79%29.95 "Hg1 mi
6:40 AM77 °FFog.2 mph83%29.95 "Hg1 mi
5:40 AM77 °FFog.2 mph83%29.92 "Hg3 mi
3:40 AM77 °FHaze.3 mph83%29.92 "Hg3 mi
2:40 AM77 °FHaze.3 mph89%29.92 "Hg3 mi
1:40 AM79 °FHaze.5 mph79%29.92 "Hg3 mi
11:40 PM
Thu, Mar 26
81 °FPassing clouds.5 mph70%29.98 "Hg4 mi
10:40 PM82 °FPassing clouds.8 mph66%29.95 "Hg4 mi
9:40 PM86 °FPassing clouds.8 mph55%29.92 "Hg4 mi
8:40 PM86 °FPassing clouds.9 mph59%29.89 "Hg4 mi
7:40 PM90 °FPassing clouds.10 mph43%29.86 "Hg4 mi
6:40 PM93 °FPassing clouds.7 mph39%29.86 "Hg4 mi
Weather by CustomWeather, © 2015

See weather overviewHow to use our weather pages